Stations météo

réclame
Mon MeteoGroup
Farnborough, Grande-Bretagne (3768): Température de l'air & dewpoint: 14.06.2018 06:00:00 - 20.06.2018 06:00:00 (BST)Farnborough, Grande-Bretagne (3768): Température de l'air -100cm: 14.06.2018 06:00:00 - 20.06.2018 06:00:00 (BST)Farnborough, Grande-Bretagne (3768): Vitesse du vent & gusts: 14.06.2018 06:00:00 - 20.06.2018 06:00:00 (BST)Farnborough, Grande-Bretagne (3768): Direction du vent: 14.06.2018 06:00:00 - 20.06.2018 06:00:00 (BST)Farnborough, Grande-Bretagne (3768): reduced air pressure: 14.06.2018 06:00:00 - 20.06.2018 06:00:00 (BST)Farnborough, Grande-Bretagne (3768): visibility: 14.06.2018 06:00:00 - 20.06.2018 06:00:00 (BST)Farnborough, Grande-Bretagne (3768): Quantités de précipitations: 14.06.2018 06:00:00 - 20.06.2018 06:00:00 (BST)
Date & Time tt [°C] td [°C] tt -100cm [°C] ff [km/h] ff [knt] fx [km/h] fx [knt] dd ppp [hPa] vv [km] rr [mm]
20.06.2018 06:00:00 14,6 14,5 - 15 8 - - SSW 1021,4 3,7 0,0
20.06.2018 05:00:00 14,7 14,6 - 15 8 - - SSW 1021,3 3,8 0,0
20.06.2018 04:00:00 14,6 14,5 - 11 6 - - S 1021,5 2,2 0,0
20.06.2018 03:00:00 14,2 14,0 - 2 1 - - SW 1021,8 2,3 0,0
20.06.2018 02:00:00 13,5 13,1 - 5 3 - - S 1022,1 12 0,0
20.06.2018 01:00:00 13,9 13,3 - 5 3 - - S 1022,5 17 0,0
20.06.2018 00:00:00 15,0 14,2 - 8 4 - - S 1022,8 19 0,0
19.06.2018 23:00:00 15,6 14,1 - 9 5 - - S 1022,8 21 0,0
19.06.2018 22:00:00 16,9 14,9 - 11 6 - - SSW 1022,9 23 0,0
19.06.2018 21:00:00 18,2 14,9 - 15 8 - - SSW 1022,5 10 0,0
19.06.2018 20:00:00 20,2 15,5 - 21 11 - - SW 1022,4 10 0,0
19.06.2018 19:00:00 21,8 16,4 - 24 13 - - SSW 1022,6 10 0,0
19.06.2018 18:00:00 21,1 16,1 - 21 11 - - SSW 1022,5 10 0,0
19.06.2018 17:00:00 21,8 16,5 - 16 9 - - SW 1022,7 28 0,0
19.06.2018 16:00:00 22,1 16,8 - 18 10 - - SW 1023,1 10 0,0
19.06.2018 15:00:00 21,7 16,0 - 15 8 - - SSW 1023,2 10 0,0
19.06.2018 14:00:00 20,9 15,3 - 15 8 - - WSW 1023,3 10 0,0
19.06.2018 13:00:00 21,3 16,4 - 16 9 - - WSW 1023,5 10 0,0
19.06.2018 12:00:00 20,3 15,2 - 21 11 - - WSW 1023,7 10 0,0
19.06.2018 11:00:00 19,6 14,6 - 15 8 - - W 1023,5 10 0,0
19.06.2018 10:00:00 19,2 14,7 15,2 16 9 - - W 1023,7 10 0,0
19.06.2018 09:00:00 19,0 14,9 - 18 10 - - W 1023,6 10 0,0
19.06.2018 08:00:00 18,3 14,2 - 16 9 - - W 1023,3 10 0,0
19.06.2018 07:00:00 17,5 14,6 - 13 7 - - W 1022,9 10 0,0
19.06.2018 06:00:00 16,9 14,8 - 15 8 - - WSW 1022,7 30 0,0
19.06.2018 05:00:00 16,9 14,9 - 13 7 - - WSW 1022,1 29 0,0
19.06.2018 04:00:00 17,1 15,2 - 13 7 - - WSW 1021,6 30 0,0
19.06.2018 03:00:00 17,2 15,2 - 13 7 - - WSW 1021,6 25 0,0
19.06.2018 02:00:00 17,5 15,0 - 16 9 - - WSW 1021,5 30 0,0
19.06.2018 01:00:00 17,5 15,4 - 15 8 - - WSW 1021,3 22 -
19.06.2018 00:00:00 17,6 15,5 - 15 8 - - WSW 1021,2 18 0,0
18.06.2018 23:00:00 17,3 15,3 - 21 11 - - SW 1021,2 19 0,0
18.06.2018 22:00:00 17,1 14,7 - 18 10 - - SW 1021,0 19 0,0
18.06.2018 21:00:00 17,7 14,5 - 18 10 - - SW 1020,5 10 0,0
18.06.2018 20:00:00 18,7 14,5 - 18 10 - - SW 1020,6 10 0,0
18.06.2018 19:00:00 19,8 14,1 - 29 16 - - WSW 1020,0 10 0,0
18.06.2018 18:00:00 21,2 14,2 - 28 15 - - SW 1019,6 10 0,0
18.06.2018 17:00:00 22,5 14,4 - 29 16 - - WSW 1019,5 10 0,0
18.06.2018 16:00:00 23,8 14,6 - 28 15 - - W 1019,2 10 0,0
18.06.2018 15:00:00 23,5 13,1 - 24 13 - - WSW 1019,4 30 0,0
18.06.2018 14:00:00 23,4 13,2 - 21 11 - - W 1019,3 10 0,0
18.06.2018 13:00:00 21,2 11,6 - 22 12 - - WSW 1019,8 10 0,0
18.06.2018 12:00:00 19,5 11,3 - 26 14 - - WSW 1019,9 10 0,0
18.06.2018 11:00:00 17,3 10,7 - 24 13 - - W 1019,8 10 0,0
18.06.2018 10:00:00 16,4 12,2 15,2 15 8 - - W 1019,6 10 0,0
18.06.2018 09:00:00 15,2 12,6 - 18 10 - - WSW 1019,7 10 0,0
18.06.2018 08:00:00 14,8 12,7 - 13 7 - - W 1019,2 10 0,0
18.06.2018 07:00:00 14,7 12,8 - 15 8 - - W 1018,3 10 0,0
18.06.2018 06:00:00 14,3 13,0 - 11 6 - - SW 1017,8 30 0,0
18.06.2018 05:00:00 14,2 13,2 - 13 7 - - W 1017,7 26 0,0
18.06.2018 04:00:00 15,1 14,3 - 13 7 - - SW 1017,2 21 0,0
18.06.2018 03:00:00 15,1 14,8 - 13 7 - - SW 1017,0 7 0,0
18.06.2018 02:00:00 15,1 14,7 - 13 7 - - SW 1017,1 9 0,0
18.06.2018 01:00:00 15,0 14,6 - 15 8 - - SSW 1017,1 11 0,0
18.06.2018 00:00:00 14,7 14,4 - 15 8 - - SSW 1017,1 7 0,0
17.06.2018 23:00:00 14,6 14,1 - 16 9 - - SSW 1017,3 12 0,0
17.06.2018 22:00:00 14,6 13,9 - 11 6 - - SSW 1017,1 12 0,0
17.06.2018 21:00:00 14,5 13,6 - 18 10 - - S 1016,5 15 0,0
17.06.2018 20:00:00 14,5 13,3 - 16 9 - - SSW 1017,1 10 0,0
17.06.2018 19:00:00 14,8 12,9 - 22 12 - - SW 1016,9 10 0,0
17.06.2018 18:00:00 14,7 12,6 - 26 14 - - SW 1016,8 10 0,0
17.06.2018 17:00:00 15,6 11,7 - 24 13 - - SW 1017,0 10 0,0
17.06.2018 16:00:00 16,8 11,1 - 29 16 - - SW 1016,7 10 0,0
17.06.2018 15:00:00 16,2 11,5 - 24 13 - - SW 1017,0 10 0,0
17.06.2018 14:00:00 17,1 11,1 - 26 14 - - SW 1016,8 10 0,0
17.06.2018 13:00:00 17,3 10,3 - 26 14 - - SW 1016,6 10 0,0
17.06.2018 12:00:00 16,8 10,0 - 22 12 - - WSW 1016,9 10 0,0
17.06.2018 11:00:00 16,2 10,6 - 21 11 - - SW 1016,8 10 0,0
17.06.2018 10:00:00 15,3 10,9 15,2 22 12 - - WSW 1017,1 10 0,0
17.06.2018 09:00:00 14,4 11,1 - 24 13 - - WSW 1016,9 10 0,2
17.06.2018 08:00:00 12,7 11,0 - 18 10 - - WSW 1016,7 10 0,0
17.06.2018 07:00:00 12,7 10,1 - 15 8 - - WSW 1016,2 21 0,0
17.06.2018 06:00:00 12,8 9,4 - 13 7 - - SW 1015,7 29 0,0
17.06.2018 05:00:00 12,7 9,1 - 16 9 - - WSW 1015,5 29 0,0
17.06.2018 04:00:00 13,0 9,1 - 16 9 - - SW 1015,3 26 0,0
17.06.2018 03:00:00 13,0 9,3 - 15 8 - - WSW 1015,3 23 0,0
17.06.2018 02:00:00 13,1 8,9 - 15 8 - - WSW 1015,3 24 0,0
17.06.2018 01:00:00 13,2 8,7 - 16 9 - - WSW 1015,3 25 0,0
17.06.2018 00:00:00 14,0 8,8 - 13 7 - - WSW 1015,1 28 0,0
16.06.2018 23:00:00 13,3 8,4 - 9 5 - - WSW 1015,0 26 0,0
16.06.2018 22:00:00 13,8 8,1 - 13 7 - - WSW 1014,8 27 0,0
16.06.2018 21:00:00 14,9 8,2 - 16 9 - - WSW 1014,2 26 0,0
16.06.2018 20:00:00 16,1 10,7 - 16 9 - - W 1013,7 10 0,0
16.06.2018 19:00:00 16,6 12,1 - 22 12 - - SSW 1013,2 10 0,0
16.06.2018 18:00:00 16,5 12,3 - 28 15 - - SSW 1013,5 10 0,0
16.06.2018 17:00:00 15,8 12,4 - 22 12 - - SW 1013,7 10 0,0
16.06.2018 16:00:00 15,9 12,3 - 26 14 - - SSW 1014,0 10 0,0
16.06.2018 15:00:00 16,5 11,9 - 34 18 - - SSW 1014,1 10 0,0
16.06.2018 14:00:00 16,5 10,3 - 24 13 - - SSW 1014,2 10 0,0
16.06.2018 13:00:00 17,0 10,4 - 24 13 - - SSW 1014,3 10 0,0
16.06.2018 12:00:00 17,1 11,0 - 21 11 - - SSW 1014,4 10 0,0
16.06.2018 11:00:00 15,6 10,1 - 24 13 - - SSW 1014,7 10 0,0
16.06.2018 10:00:00 15,9 9,2 15,2 18 10 - - SSW 1014,9 10 0,0
16.06.2018 09:00:00 15,6 9,2 - 18 10 - - WSW 1014,9 10 0,0
16.06.2018 08:00:00 14,9 10,7 - 9 5 - - WSW 1014,9 10 0,0
16.06.2018 07:00:00 13,2 10,8 - 5 3 - - SSW 1015,0 22 0,0
16.06.2018 06:00:00 12,2 10,5 - 4 2 - - S 1014,8 24 0,0
16.06.2018 05:00:00 11,6 9,4 - 5 3 - - SW 1015,0 29 0,0
16.06.2018 04:00:00 12,1 9,4 - 4 2 - - S 1015,3 35 0,0
16.06.2018 03:00:00 12,4 9,4 - 4 2 - - SSW 1015,7 35 0,0
16.06.2018 02:00:00 12,5 9,4 - 4 2 - - WSW 1015,6 28 0,0
16.06.2018 01:00:00 12,8 9,0 - 5 3 - - SW 1016,1 30 0,0
16.06.2018 00:00:00 13,1 8,7 - 5 3 - - SW 1016,0 30 0,0
15.06.2018 23:00:00 13,6 8,2 - 5 3 - - WSW 1016,1 30 0,0
15.06.2018 22:00:00 15,5 8,1 - 11 6 - - W 1016,3 29 0,0
15.06.2018 21:00:00 16,9 8,0 - 11 6 - - W 1016,1 10 0,0
15.06.2018 20:00:00 17,6 8,5 - 11 6 - - WNW 1015,9 10 0,0
15.06.2018 19:00:00 18,4 9,0 - 11 6 - - NW 1015,6 10 0,0
15.06.2018 18:00:00 19,5 7,6 - 13 7 - - WSW 1015,7 10 0,0
15.06.2018 17:00:00 20,1 7,9 - 13 7 - - W 1016,1 10 0,0
15.06.2018 16:00:00 21,7 9,3 - 18 10 - - WSW 1016,2 10 0,0
15.06.2018 15:00:00 20,3 8,6 - 15 8 - - W 1016,6 10 0,0
15.06.2018 14:00:00 21,0 9,2 - 18 10 - - SW 1016,5 10 0,0
15.06.2018 13:00:00 20,5 9,8 - 21 11 - - SSW 1016,5 10 0,0
15.06.2018 12:00:00 19,7 9,1 - 15 8 - - SW 1016,9 10 0,0
15.06.2018 11:00:00 19,4 11,1 - 11 6 - - - 1016,7 10 0,0
15.06.2018 10:00:00 17,5 9,3 15,2 5 3 - - - 1016,9 10 0,0
15.06.2018 09:00:00 15,9 11,3 - 9 5 - - WNW 1017,4 10 0,0
15.06.2018 08:00:00 13,6 10,8 - 11 6 - - WNW 1017,5 10 0,0
15.06.2018 07:00:00 11,2 10,5 - 4 2 - - - 1017,0 10 0,0
15.06.2018 06:00:00 8,8 8,5 - 2 1 - - WSW 1016,9 16 0,0
15.06.2018 05:00:00 8,6 8,2 - 0 0 - - N 1016,6 15 0,0
15.06.2018 04:00:00 7,7 6,8 - 2 1 - - SW 1016,7 17 0,0
15.06.2018 03:00:00 9,1 8,2 - 5 3 - - SW 1016,6 22 0,0
15.06.2018 02:00:00 8,9 7,2 - 4 2 - - SW 1016,3 21 0,0
15.06.2018 01:00:00 11,8 9,1 - 5 3 - - W 1016,6 19 0,0
15.06.2018 00:00:00 12,9 9,1 - 8 4 - - WSW 1016,5 20 0,0
14.06.2018 23:00:00 14,6 9,8 - 11 6 - - W 1016,0 22 0,0
14.06.2018 22:00:00 16,0 10,3 - 11 6 - - W 1015,6 21 0,0
14.06.2018 21:00:00 17,5 10,7 - 11 6 - - W 1014,8 24 0,0
14.06.2018 20:00:00 18,9 10,4 - 15 8 - - W 1013,9 10 0,0
14.06.2018 19:00:00 20,6 11,1 - 13 7 - - W 1013,3 10 0,0
14.06.2018 18:00:00 21,5 10,7 - 15 8 - - W 1012,6 10 0,0
14.06.2018 17:00:00 21,2 11,2 - 16 9 - - W 1012,3 10 0,0
14.06.2018 16:00:00 21,1 10,0 - 16 9 - - W 1012,0 10 0,0
14.06.2018 15:00:00 21,2 11,1 - 18 10 - - W 1011,5 10 0,0
14.06.2018 14:00:00 20,5 10,9 - 22 12 46 25 W 1011,3 10 0,0
14.06.2018 13:00:00 19,7 13,4 - 16 9 - - W 1010,8 10 0,0
14.06.2018 12:00:00 17,6 14,6 - 26 14 48 26 SW 1010,9 10 0,0
14.06.2018 11:00:00 16,0 14,0 - 26 14 48 26 SW 1010,4 10 0,0
14.06.2018 10:00:00 14,7 13,3 15,2 24 13 46 25 SSW 1010,1 10 0,0
14.06.2018 09:00:00 14,3 13,3 - 26 14 48 26 SSW 1010,2 10 0,0
14.06.2018 08:00:00 14,3 12,3 - 29 16 48 26 SW 1010,5 10 0,0
14.06.2018 07:00:00 14,3 11,8 - 18 10 - - SW 1010,5 10 0,0
14.06.2018 06:00:00 14,2 11,5 - 22 12 - - SSW 1011,0 22 0,0

tt = Température de l'air
td = dewpoint
tt -100cm = Température de l'air -100cm
ff = Vitesse du vent
fx = gusts
dd = Direction du vent
ppp = reduced air pressure
vv = visibility
rr = Quantités de précipitations

stations d'obs. à proximité